EW5093 Weather Reports


time (UTC)temp
C
wind
direction
speed
KPH
gust
KPH
rain 1hr
cm
rain 24hr
cm
rain mn
cm
humidity
%
barometer
mb
20260505140511 12 0 0.0 4.8 0.00 0.00 0.00 88 1014.7
20260505125011 13 0 0.0 3.2 0.00 0.00 0.00 81 1014.3
20260505124532 13 0 0.0 0.0 0.00 0.00 0.00 80 1014.3
20260505124012 13 0 0.0 0.0 0.00 0.00 0.00 80 1014.2
20260505123513 13 0 0.0 0.0 0.00 0.00 0.00 79 1014.2
20260505123031 13 0 0.0 0.0 0.00 0.00 0.00 80 1014.2
20260505122510 13 0 0.0 0.0 0.00 0.00 0.00 80 1014.2
20260505122015 13 0 0.0 0.0 0.00 0.00 0.00 80 1014.1
20260505121536 13 0 0.0 0.0 0.00 0.00 0.00 80 1014.2
20260505121014 13 0 0.0 0.0 0.00 0.00 0.00 80 1014.1
20260505120514 13 0 0.0 0.0 0.00 0.00 0.00 80 1014.1
20260505120055 13 0 0.0 0.0 0.00 0.00 0.00 81 1014.0
20260505115516 13 0 0.0 0.0 0.00 0.00 0.00 80 1014.0
20260505115015 13 0 0.0 0.0 0.00 0.00 0.00 80 1014.1
20260505114531 13 0 0.0 0.0 0.00 0.00 0.00 80 1014.0
20260505114013 13 0 0.0 0.0 0.00 0.00 0.00 80 1014.0
20260505113513 13 0 0.0 3.2 0.00 0.00 0.00 80 1014.0
20260505113028 13 0 0.0 4.8 0.00 0.00 0.00 80 1014.0
20260505112516 13 351 0.0 6.4 0.00 0.00 0.00 80 1014.0
20260505112014 13 355 1.6 6.4 0.00 0.00 0.00 80 1014.0
20260505111532 13 346 0.0 6.4 0.00 0.00 0.00 80 1014.0
20260505111013 13 346 0.0 6.4 0.00 0.00 0.00 80 1013.9
20260505110512 13 0 0.0 6.4 0.00 0.00 0.00 80 1013.9
20260505102015 13 345 0.0 4.8 0.00 0.00 0.00 80 1013.6
20260505101530 13 0 0.0 4.8 0.00 0.00 0.00 80 1013.6
20260505101013 13 0 1.6 4.8 0.00 0.00 0.00 80 1013.6
20260505100516 13 350 1.6 4.8 0.00 0.00 0.00 80 1013.6
20260505100032 13 352 1.6 4.8 0.00 0.00 0.00 80 1013.7
20260505095509 13 344 0.0 4.8 0.00 0.00 0.00 80 1013.7
20260505095019 13 348 0.0 4.8 0.00 0.00 0.00 80 1013.7
20260505094532 13 0 0.0 4.8 0.00 0.00 0.00 80 1013.7
20260505094014 13 0 0.0 6.4 0.00 0.00 0.00 80 1013.6
20260505093513 13 333 0.0 6.4 0.00 0.00 0.00 80 1013.6
20260505093033 13 337 1.6 4.8 0.00 0.00 0.00 80 1013.5
20260505092514 13 28 0.0 3.2 0.00 0.00 0.00 80 1013.4
20260505092013 13 0 0.0 3.2 0.00 0.00 0.00 80 1013.5
20260505091531 13 0 0.0 3.2 0.00 0.00 0.00 80 1013.5
20260505091012 13 355 0.0 3.2 0.00 0.00 0.00 80 1013.5
20260505090512 13 0 0.0 4.8 0.00 0.00 0.00 80 1013.4
20260505090041 13 0 0.0 4.8 0.00 0.00 0.00 80 1013.3
20260505085521 13 0 0.0 4.8 0.00 0.00 0.00 80 1013.3
20260505085012 13 274 0.0 3.2 0.00 0.00 0.00 81 1013.3
20260505084530 13 263 0.0 3.2 0.00 0.00 0.00 81 1013.3
20260505084017 13 0 0.0 3.2 0.00 0.00 0.00 80 1013.3
20260505083513 13 0 0.0 3.2 0.00 0.00 0.00 80 1013.3
20260505083030 13 335 0.0 3.2 0.00 0.00 0.00 80 1013.2
20260505082510 13 340 0.0 3.2 0.00 0.00 0.00 80 1013.2
20260505082010 13 0 0.0 3.2 0.00 0.00 0.00 80 1013.3
20260505081535 13 0 0.0 1.6 0.00 0.00 0.00 80 1013.1
20260505081014 13 337 0.0 6.4 0.00 0.00 0.00 80 1013.2
20260505080512 13 0 0.0 6.4 0.00 0.00 0.00 81 1013.1
20260505080037 13 342 1.6 6.4 0.00 0.00 0.00 80 1013.1
20260505075513 13 346 1.6 6.4 0.00 0.00 0.00 80 1013.0
20260505075013 13 337 0.0 6.4 0.00 0.00 0.00 80 1013.0
20260505074531 13 350 0.0 6.4 0.00 0.00 0.00 80 1012.9
20260505074011 13 334 0.0 4.8 0.00 0.00 0.00 80 1012.8
20260505073512 13 328 1.6 6.4 0.00 0.00 0.00 80 1012.8
20260505073046 13 352 1.6 6.4 0.00 0.00 0.00 79 1012.7
20260505072518 13 0 0.0 4.8 0.00 0.00 0.00 79 1012.6
20260505072013 13 346 0.0 6.4 0.00 0.00 0.00 79 1012.6
20260505071529 14 0 1.6 6.4 0.00 0.00 0.00 78 1012.5
20260505071011 14 5 0.0 6.4 0.00 0.00 0.00 78 1012.4
20260505070513 14 343 1.6 6.4 0.00 0.00 0.00 78 1012.5
20260505070032 14 331 0.0 8.0 0.00 0.00 0.00 78 1012.5
20260505065513 15 322 1.6 8.0 0.00 0.00 0.00 78 1012.5
20260505065012 15 0 1.6 9.7 0.00 0.00 0.00 77 1012.4
20260505064540 15 0 0.0 9.7 0.00 0.00 0.00 77 1012.2
20260505064013 15 332 1.6 9.7 0.00 0.00 0.00 77 1012.1
20260505063513 15 317 0.0 4.8 0.00 0.00 0.00 76 1012.1
20260505063030 15 0 0.0 1.6 0.00 0.00 0.00 76 1012.1
20260505062511 15 0 0.0 6.4 0.00 0.00 0.00 75 1012.0
20260505062015 15 257 1.6 6.4 0.00 0.00 0.00 75 1011.9
20260505061545 15 13 0.0 4.8 0.00 0.00 0.00 75 1011.8
20260505061012 15 13 0.0 4.8 0.00 0.00 0.00 75 1011.8
20260505060515 15 0 0.0 3.2 0.00 0.00 0.00 74 1011.8
20260505060034 15 334 0.0 6.4 0.00 0.00 0.00 74 1011.8
20260505055512 15 0 0.0 6.4 0.00 0.00 0.00 74 1011.7
20260505055014 16 332 0.0 4.8 0.00 0.00 0.00 73 1011.8
20260505054551 16 313 1.6 4.8 0.00 0.00 0.00 73 1011.8
20260505054015 16 0 0.0 8.0 0.00 0.00 0.00 72 1011.7
20260505053512 16 0 0.0 9.7 0.00 0.00 0.00 72 1011.7
20260505053035 16 280 1.6 9.7 0.00 0.00 0.00 71 1011.7
20260505052513 16 296 1.6 9.7 0.00 0.00 0.00 71 1011.6
20260505052012 16 0 1.6 8.0 0.00 0.00 0.00 70 1011.6
20260505051534 17 307 1.6 6.4 0.00 0.00 0.00 70 1011.6
20260505051017 17 24 0.0 6.4 0.00 0.00 0.00 70 1011.5
20260505050513 17 0 0.0 4.8 0.00 0.00 0.00 69 1011.5
20260505041531 19 0 1.6 6.4 0.00 0.00 0.00 64 1010.8
20260505041013 19 312 1.6 6.4 0.00 0.00 0.00 64 1010.7
20260505040511 19 321 1.6 8.0 0.00 0.00 0.00 63 1010.6
20260505040032 20 294 1.6 12.9 0.00 0.00 0.00 63 1010.6
20260505035510 20 5 1.6 12.9 0.00 0.00 0.00 63 1010.5
20260505035010 20 348 1.6 9.7 0.00 0.00 0.00 62 1010.4
20260505034530 20 311 1.6 16.1 0.00 0.00 0.00 62 1010.2
20260505034018 20 325 3.2 16.1 0.00 0.00 0.00 62 1010.0
20260505033514 21 327 4.8 16.1 0.00 0.00 0.00 63 1009.9
20260505033033 21 0 3.2 14.5 0.00 0.00 0.00 65 1009.9
20260505032512 21 139 0.0 11.3 0.00 0.00 0.00 65 1009.6
20260505032011 21 153 1.6 11.3 0.00 0.00 0.00 65 1009.4
20260505031543 21 137 3.2 9.7 0.00 0.00 0.00 65 1009.4
20260505031013 21 104 1.6 8.0 0.00 0.00 0.00 66 1009.4
20260505030514 21 148 0.0 6.4 0.00 0.00 0.00 66 1009.3
20260505030032 21 144 1.6 8.0 0.00 0.00 0.00 65 1009.3
20260505025513 21 202 3.2 8.0 0.00 0.00 0.00 65 1009.2
20260505025014 21 0 0.0 4.8 0.00 0.00 0.00 65 1009.1
20260505024535 21 0 0.0 6.4 0.00 0.00 0.00 64 1009.0
20260505024014 21 0 1.6 6.4 0.00 0.00 0.00 64 1009.1
20260505023511 22 184 1.6 6.4 0.00 0.00 0.00 63 1009.1
20260505023030 22 0 0.0 9.7 0.00 0.00 0.00 63 1009.1
20260505022513 22 179 1.6 11.3 0.00 0.00 0.00 62 1009.0
20260505022013 22 205 3.2 11.3 0.00 0.00 0.00 61 1009.1
20260505021532 23 0 0.0 9.7 0.00 0.00 0.00 60 1009.1
20260505021013 22 186 1.6 9.7 0.00 0.00 0.00 61 1009.0
20260505020511 22 166 3.2 11.3 0.00 0.00 0.00 60 1009.1
20260505020033 23 174 3.2 11.3 0.00 0.00 0.00 60 1009.1
20260505015518 23 149 1.6 6.4 0.00 0.00 0.00 59 1009.1
20260505015011 23 0 0.0 11.3 0.00 0.00 0.00 59 1009.1
20260505014536 23 0 1.6 11.3 0.00 0.00 0.00 59 1009.1
20260505014015 23 144 3.2 11.3 0.00 0.00 0.00 59 1009.1
20260505013514 23 195 1.6 11.3 0.00 0.00 0.00 58 1009.2
20260505013030 23 194 3.2 11.3 0.00 0.00 0.00 58 1009.2
20260505012513 23 132 3.2 9.7 0.00 0.00 0.00 58 1009.2
20260505012011 23 190 3.2 8.0 0.00 0.00 0.00 58 1009.3
20260505011534 23 182 3.2 8.0 0.00 0.00 0.00 57 1009.4
20260505011010 23 0 1.6 11.3 0.00 0.00 0.00 56 1009.3
20260505010513 23 199 3.2 11.3 0.00 0.00 0.00 56 1009.4
20260505010031 24 185 1.6 8.0 0.00 0.00 0.00 54 1009.4
20260505005510 23 300 3.2 8.0 0.00 0.00 0.00 57 1009.4
20260505005011 24 94 1.6 6.4 0.00 0.00 0.00 55 1009.5
20260505004544 25 300 1.6 11.3 0.00 0.00 0.00 54 1009.5
20260505004013 23 0 1.6 11.3 0.00 0.00 0.00 56 1009.6
20260505003510 23 184 4.8 11.3 0.00 0.00 0.00 56 1009.6
20260505003031 23 139 3.2 12.9 0.00 0.00 0.00 56 1009.5
20260505002518 23 154 1.6 12.9 0.00 0.00 0.00 56 1009.6
20260505002022 24 138 4.8 12.9 0.00 0.00 0.00 55 1009.5
20260505001530 25 128 3.2 12.9 0.00 0.00 0.00 54 1009.6
20260505001019 24 145 1.6 11.3 0.00 0.00 0.00 56 1009.6
20260505000513 24 164 1.6 12.9 0.00 0.00 0.00 55 1009.7
20260505000044 24 186 4.8 12.9 0.00 0.00 0.00 55 1009.7
20260504235514 24 32 3.2 12.9 0.00 0.00 0.00 54 1009.7
20260504235011 24 198 4.8 11.3 0.00 0.00 0.00 53 1009.8
20260504234531 24 88 3.2 14.5 0.00 0.00 0.00 54 1009.8
20260504234016 24 90 4.8 14.5 0.00 0.00 0.00 53 1009.8
20260504233517 24 140 4.8 14.5 0.00 0.00 0.00 53 1009.8
20260504233032 24 282 4.8 12.9 0.00 0.00 0.00 52 1009.8
20260504232516 25 105 1.6 11.3 0.00 0.00 0.00 52 1009.8
20260504232018 23 296 3.2 11.3 0.00 0.00 0.00 54 1010.0
20260504231531 24 186 1.6 11.3 0.00 0.00 0.00 53 1010.1
20260504231014 24 138 3.2 11.3 0.00 0.00 0.00 52 1010.1
20260504230513 25 89 1.6 9.7 0.00 0.00 0.00 51 1010.2
20260504230030 23 126 3.2 9.7 0.00 0.00 0.00 53 1010.2
20260504225514 24 155 3.2 9.7 0.00 0.00 0.00 51 1010.2
20260504225017 24 264 1.6 11.3 0.00 0.00 0.00 51 1010.2
20260504224531 24 73 3.2 11.3 0.00 0.00 0.00 51 1010.2
20260504224016 24 124 3.2 6.4 0.00 0.00 0.00 53 1010.3
20260504223511 23 171 1.6 6.4 0.00 0.00 0.00 53 1010.3
20260504223029 24 0 1.6 8.0 0.00 0.00 0.00 52 1010.5
20260504222511 23 157 3.2 14.5 0.00 0.00 0.00 53 1010.6
20260504222014 23 149 4.8 14.5 0.00 0.00 0.00 53 1010.6
20260504221537 23 88 3.2 12.9 0.00 0.00 0.00 53 1010.6
20260504221014 23 161 3.2 11.3 0.00 0.00 0.00 53 1010.7
20260504220511 23 92 4.8 11.3 0.00 0.00 0.00 53 1010.8
20260504220032 23 119 4.8 12.9 0.00 0.00 0.00 53 1010.8
20260504215511 23 145 3.2 14.5 0.00 0.00 0.00 53 1011.0
20260504215011 23 0 3.2 14.5 0.00 0.00 0.00 53 1010.8
20260504214529 22 103 1.6 11.3 0.00 0.00 0.00 55 1011.0
20260504214013 23 142 1.6 11.3 0.00 0.00 0.00 53 1011.0
20260504213514 22 169 4.8 11.3 0.00 0.00 0.00 55 1011.1
20260504213036 22 142 1.6 12.9 0.00 0.00 0.00 55 1011.2
20260504212512 22 106 3.2 12.9 0.00 0.00 0.00 57 1011.2
20260504212013 22 150 3.2 12.9 0.00 0.00 0.00 55 1011.3
20260504211529 20 167 1.6 12.9 0.00 0.00 0.00 59 1011.3
20260504211013 21 155 6.4 12.9 0.00 0.00 0.00 58 1011.5
20260504210511 21 188 3.2 14.5 0.00 0.00 0.00 57 1011.5
20260504210032 21 170 3.2 14.5 0.00 0.00 0.00 55 1011.5
20260504205512 21 207 6.4 14.5 0.00 0.00 0.00 57 1011.6
20260504205011 21 157 3.2 8.0 0.00 0.00 0.00 58 1011.7
20260504204532 20 145 3.2 12.9 0.00 0.00 0.00 59 1011.8
20260504204014 20 180 4.8 12.9 0.00 0.00 0.00 59 1011.9
20260504203518 21 165 3.2 12.9 0.00 0.00 0.00 58 1012.0
20260504203031 20 80 3.2 12.9 0.00 0.00 0.00 61 1011.9
20260504202517 20 113 4.8 12.9 0.00 0.00 0.00 59 1012.0
20260504202017 20 174 4.8 12.9 0.00 0.00 0.00 61 1012.0
20260504201530 20 196 4.8 12.9 0.00 0.00 0.00 61 1012.1
20260504201013 20 151 4.8 11.3 0.00 0.00 0.00 62 1012.2
20260504200511 20 169 4.8 11.3 0.00 0.00 0.00 61 1012.3
20260504200030 20 33 1.6 12.9 0.00 0.00 0.00 59 1012.3
20260504195513 20 171 3.2 12.9 0.00 0.00 0.00 63 1012.4
20260504195011 20 125 4.8 11.3 0.00 0.00 0.00 63 1012.5
20260504194532 19 161 3.2 11.3 0.00 0.00 0.00 64 1012.4
20260504194011 18 131 1.6 16.1 0.00 0.00 0.00 66 1012.5
20260504193511 17 134 4.8 19.3 0.00 0.00 0.00 67 1012.5
20260504193032 17 171 8.0 19.3 0.00 0.00 0.00 66 1012.6
20260504192513 18 187 6.4 14.5 0.00 0.00 0.00 65 1012.6
20260504192015 18 155 6.4 14.5 0.00 0.00 0.00 67 1012.7
20260504191530 18 200 3.2 12.9 0.00 0.00 0.00 66 1012.7
20260504191012 18 169 3.2 11.3 0.00 0.00 0.00 66 1012.7
20260504190515 18 113 4.8 12.9 0.00 0.00 0.00 65 1012.7
20260504190030 18 108 3.2 12.9 0.00 0.00 0.00 65 1012.8
20260504185512 18 165 3.2 12.9 0.00 0.00 0.00 68 1012.9
20260504185013 17 136 1.6 12.9 0.00 0.00 0.00 67 1012.9
20260504184531 17 0 3.2 12.9 0.00 0.00 0.00 69 1013.1
20260504184012 17 123 4.8 12.9 0.00 0.00 0.00 67 1013.0
20260504183512 17 69 3.2 14.5 0.00 0.00 0.00 69 1013.0
20260504183031 16 134 4.8 16.1 0.00 0.00 0.00 71 1013.0
20260504182511 16 165 6.4 16.1 0.00 0.00 0.00 69 1012.9
20260504182013 17 139 4.8 11.3 0.00 0.00 0.00 69 1012.9
20260504181533 17 0 1.6 11.3 0.00 0.00 0.00 67 1012.9
20260504181011 17 0 3.2 11.3 0.00 0.00 0.00 70 1012.9
20260504180517 16 161 1.6 12.9 0.00 0.00 0.00 70 1012.9
20260504180031 15 140 3.2 17.7 0.00 0.00 0.00 72 1012.8
20260504175521 15 144 6.4 17.7 0.00 0.00 0.00 74 1012.9
20260504175010 15 91 6.4 17.7 0.00 0.00 0.00 73 1012.9
20260504174530 15 148 4.8 17.7 0.00 0.00 0.00 75 1012.9
20260504174015 15 139 6.4 14.5 0.00 0.00 0.00 72 1012.9
20260504173515 16 163 4.8 12.9 0.00 0.00 0.00 72 1012.9
20260504173036 16 180 8.0 12.9 0.00 0.00 0.00 71 1012.9
20260504172513 16 141 4.8 16.1 0.00 0.00 0.00 72 1012.9
20260504172011 16 161 6.4 16.1 0.00 0.00 0.00 71 1012.8
20260504171531 15 195 6.4 14.5 0.00 0.00 0.00 72 1012.8
20260504171014 15 63 1.6 19.3 0.00 0.00 0.00 72 1012.8
20260504170521 15 152 4.8 19.3 0.00 0.00 0.00 74 1012.7
20260504151013 13 219 4.8 19.3 0.00 0.00 0.00 79 1012.3
20260504150511 13 0 4.8 19.3 0.00 0.00 0.00 80 1012.2